Time,TemperatureF,DewpointF,PressureIn,WindDirection,WindDirectionDegrees,WindSpeedMPH,WindSpeedGustMPH,Humidity,HourlyPrecipIn,Conditions,Clouds,dailyrainin,SoftwareType,DateUTC
2013-04-17 00:01:00,44.7,33.3,30.16,East,94,7.0,16.0,64,0.00,,,0.00,VWS V14.00,2013-04-17 05:01:00,
2013-04-17 00:06:00,44.7,33.3,30.16,ENE,70,7.0,10.0,64,0.00,,,0.00,VWS V14.00,2013-04-17 05:06:00,
2013-04-17 00:11:00,44.7,33.7,30.16,NE,52,7.0,13.0,65,0.00,,,0.00,VWS V14.00,2013-04-17 05:11:00,
2013-04-17 00:16:00,44.6,33.6,30.16,ENE,71,5.0,13.0,65,0.00,,,0.00,VWS V14.00,2013-04-17 05:16:00,
2013-04-17 00:21:00,44.6,33.6,30.16,ENE,76,5.0,13.0,65,0.00,,,0.00,VWS V14.00,2013-04-17 05:21:00,
2013-04-17 00:26:00,44.6,33.6,30.16,ENE,67,8.0,13.0,65,0.00,,,0.00,VWS V14.00,2013-04-17 05:26:00,
2013-04-17 00:31:00,44.6,33.6,30.16,East,87,0.0,13.0,65,0.00,,,0.00,VWS V14.00,2013-04-17 05:31:00,
2013-04-17 00:36:00,44.6,33.6,30.16,ESE,105,0.0,9.0,65,0.00,,,0.00,VWS V14.00,2013-04-17 05:36:00,
2013-04-17 00:41:00,44.5,33.5,30.15,ENE,59,7.0,13.0,65,0.00,,,0.00,VWS V14.00,2013-04-17 05:41:00,
2013-04-17 00:46:00,44.5,33.5,30.15,East,82,6.0,13.0,65,0.00,,,0.00,VWS V14.00,2013-04-17 05:46:00,
2013-04-17 00:51:00,44.5,33.5,30.14,East,98,1.0,13.0,65,0.00,,,0.00,VWS V14.00,2013-04-17 05:51:00,
2013-04-17 00:56:00,44.5,33.5,30.15,ENE,65,5.0,13.0,65,0.00,,,0.00,VWS V14.00,2013-04-17 05:56:00,
2013-04-17 01:01:00,44.4,33.4,30.15,ESE,106,11.0,13.0,65,0.00,,,0.00,VWS V14.00,2013-04-17 06:01:00,
2013-04-17 01:06:00,44.4,33.8,30.14,East,87,11.0,16.0,66,0.00,,,0.00,VWS V14.00,2013-04-17 06:06:00,
2013-04-17 01:11:00,44.4,33.8,30.14,East,84,6.0,16.0,66,0.00,,,0.00,VWS V14.00,2013-04-17 06:11:00,
2013-04-17 01:16:00,44.3,33.7,30.14,ENE,71,6.0,16.0,66,0.00,,,0.00,VWS V14.00,2013-04-17 06:16:00,
2013-04-17 01:21:00,44.3,33.7,30.12,NE,56,9.0,16.0,66,0.00,,,0.00,VWS V14.00,2013-04-17 06:21:00,
2013-04-17 01:26:00,44.2,33.6,30.11,East,98,8.0,16.0,66,0.00,,,0.00,VWS V14.00,2013-04-17 06:26:00,
2013-04-17 01:31:00,44.2,33.6,30.11,ENE,78,8.0,16.0,66,0.00,,,0.00,VWS V14.00,2013-04-17 06:31:00,
2013-04-17 01:36:00,44.2,33.6,30.11,ENE,68,9.0,15.0,66,0.00,,,0.00,VWS V14.00,2013-04-17 06:36:00,
2013-04-17 01:41:00,44.1,33.5,30.10,East,84,7.0,18.0,66,0.00,,,0.00,VWS V14.00,2013-04-17 06:41:00,
2013-04-17 01:46:00,44.1,33.5,30.10,East,89,9.0,18.0,66,0.00,,,0.00,VWS V14.00,2013-04-17 06:46:00,
2013-04-17 01:51:00,44.1,33.5,30.10,East,95,2.0,18.0,66,0.00,,,0.00,VWS V14.00,2013-04-17 06:51:00,
2013-04-17 01:56:00,44.1,33.5,30.10,East,88,13.0,18.0,66,0.00,,,0.00,VWS V14.00,2013-04-17 06:56:00,
2013-04-17 02:01:00,44.1,33.5,30.09,ENE,72,9.0,19.0,66,0.00,,,0.00,VWS V14.00,2013-04-17 07:01:00,
2013-04-17 02:06:00,44.0,33.4,30.08,ESE,121,10.0,16.0,66,0.00,,,0.00,VWS V14.00,2013-04-17 07:06:00,
2013-04-17 02:11:00,44.0,33.4,30.08,East,90,13.0,16.0,66,0.00,,,0.00,VWS V14.00,2013-04-17 07:11:00,
2013-04-17 02:16:00,44.0,33.4,30.09,ESE,113,9.0,19.0,66,0.00,,,0.00,VWS V14.00,2013-04-17 07:16:00,
2013-04-17 02:21:00,44.0,33.4,30.08,East,96,7.0,19.0,66,0.00,,,0.00,VWS V14.00,2013-04-17 07:21:00,
2013-04-17 02:26:00,44.0,33.4,30.09,ENE,71,10.0,19.0,66,0.00,,,0.00,VWS V14.00,2013-04-17 07:26:00,
2013-04-17 02:31:00,44.0,33.4,30.10,ENE,76,12.0,19.0,66,0.00,,,0.00,VWS V14.00,2013-04-17 07:31:00,
2013-04-17 02:36:00,44.0,33.4,30.09,ENE,75,10.0,13.0,66,0.00,,,0.00,VWS V14.00,2013-04-17 07:36:00,
2013-04-17 02:41:00,43.9,33.3,30.08,ENE,64,9.0,14.0,66,0.00,,,0.00,VWS V14.00,2013-04-17 07:41:00,
2013-04-17 02:46:00,43.9,33.7,30.08,NE,49,14.0,14.0,67,0.00,,,0.00,VWS V14.00,2013-04-17 07:46:00,
2013-04-17 02:51:00,43.8,33.6,30.08,East,84,6.0,15.0,67,0.00,,,0.00,VWS V14.00,2013-04-17 07:51:00,
2013-04-17 02:56:00,43.8,33.6,30.08,NE,53,9.0,15.0,67,0.00,,,0.00,VWS V14.00,2013-04-17 07:56:00,
2013-04-17 03:01:00,43.8,33.6,30.07,East,96,9.0,15.0,67,0.00,,,0.00,VWS V14.00,2013-04-17 08:01:00,
2013-04-17 03:06:00,43.7,33.5,30.06,ESE,111,4.0,9.0,67,0.00,,,0.00,VWS V14.00,2013-04-17 08:06:00,
2013-04-17 03:11:00,43.7,33.5,30.06,NE,53,8.0,13.0,67,0.00,,,0.00,VWS V14.00,2013-04-17 08:11:00,
2013-04-17 03:16:00,43.6,33.4,30.06,ENE,70,12.0,13.0,67,0.00,,,0.00,VWS V14.00,2013-04-17 08:16:00,
2013-04-17 03:21:00,43.6,33.4,30.05,ESE,105,6.0,16.0,67,0.00,,,0.00,VWS V14.00,2013-04-17 08:21:00,
2013-04-17 03:26:00,43.5,33.7,30.04,NE,51,4.0,16.0,68,0.00,,,0.00,VWS V14.00,2013-04-17 08:26:00,
2013-04-17 03:31:00,43.5,33.7,30.05,NE,37,16.0,16.0,68,0.00,,,0.00,VWS V14.00,2013-04-17 08:31:00,
2013-04-17 03:36:00,43.4,33.6,30.06,ENE,67,14.0,18.0,68,0.00,,,0.00,VWS V14.00,2013-04-17 08:36:00,
2013-04-17 03:41:00,43.5,33.7,30.07,SSE,155,5.0,18.0,68,0.00,,,0.00,VWS V14.00,2013-04-17 08:41:00,
2013-04-17 03:46:00,43.4,33.6,30.07,East,98,10.0,18.0,68,0.00,,,0.00,VWS V14.00,2013-04-17 08:46:00,
2013-04-17 03:51:00,43.4,33.6,30.06,ENE,77,7.0,18.0,68,0.00,,,0.00,VWS V14.00,2013-04-17 08:51:00,
2013-04-17 03:56:00,43.4,33.6,30.05,ENE,70,9.0,18.0,68,0.00,,,0.00,VWS V14.00,2013-04-17 08:56:00,
2013-04-17 04:01:00,43.3,33.5,30.05,ENE,65,8.0,18.0,68,0.00,,,0.00,VWS V14.00,2013-04-17 09:01:00,
2013-04-17 04:06:00,43.2,33.7,30.03,ESE,103,3.0,7.0,69,0.00,,,0.00,VWS V14.00,2013-04-17 09:06:00,
2013-04-17 04:11:00,43.1,33.6,30.03,NE,51,11.0,17.0,69,0.00,,,0.00,VWS V14.00,2013-04-17 09:11:00,
2013-04-17 04:16:00,43.0,33.9,30.02,ESE,115,12.0,18.0,70,0.00,,,0.00,VWS V14.00,2013-04-17 09:16:00,
2013-04-17 04:21:00,42.8,34.1,30.02,East,93,12.0,19.0,71,0.00,,,0.00,VWS V14.00,2013-04-17 09:21:00,
2013-04-17 04:26:00,42.7,34.0,29.99,East,101,10.0,19.0,71,0.00,,,0.00,VWS V14.00,2013-04-17 09:26:00,
2013-04-17 04:31:00,42.5,34.1,30.00,East,87,13.0,24.0,72,0.00,,,0.00,VWS V14.00,2013-04-17 09:31:00,
2013-04-17 04:36:00,42.6,34.2,29.99,NNW,344,11.0,15.0,72,0.00,,,0.00,VWS V14.00,2013-04-17 09:36:00,
2013-04-17 04:41:00,42.5,34.1,29.98,East,83,3.0,25.0,72,0.00,,,0.00,VWS V14.00,2013-04-17 09:41:00,
2013-04-17 04:46:00,42.5,34.1,29.99,East,94,9.0,25.0,72,0.00,,,0.00,VWS V14.00,2013-04-17 09:46:00,
2013-04-17 04:51:00,42.6,34.6,29.99,SW,232,7.0,25.0,73,0.00,,,0.00,VWS V14.00,2013-04-17 09:51:00,
2013-04-17 04:56:00,42.6,35.2,30.15,ENE,76,13.0,25.0,75,0.85,,,0.03,VWS V14.00,2013-04-17 09:56:00,
2013-04-17 05:01:00,41.8,35.1,30.06,ENE,76,3.0,25.0,77,0.24,,,0.06,VWS V14.00,2013-04-17 10:01:00,
2013-04-17 05:06:00,41.3,35.3,30.06,ENE,76,5.0,11.0,79,0.29,,,0.08,VWS V14.00,2013-04-17 10:06:00,
2013-04-17 05:11:00,41.0,35.3,30.05,ESE,111,7.0,15.0,80,0.16,,,0.09,VWS V14.00,2013-04-17 10:11:00,
2013-04-17 05:16:00,40.7,35.6,30.04,ENE,74,6.0,16.0,82,0.31,,,0.11,VWS V14.00,2013-04-17 10:16:00,
2013-04-17 05:21:00,40.5,35.8,30.04,North,350,0.0,16.0,83,0.23,,,0.13,VWS V14.00,2013-04-17 10:21:00,
2013-04-17 05:26:00,41.3,37.4,30.07,WNW,286,3.0,16.0,86,0.16,,,0.14,VWS V14.00,2013-04-17 10:26:00,
2013-04-17 05:31:00,41.6,37.7,30.06,NNW,344,0.0,16.0,86,0.15,,,0.15,VWS V14.00,2013-04-17 10:31:00,
2013-04-17 05:36:00,40.9,36.8,30.02,East,87,6.0,7.0,85,0.10,,,0.16,VWS V14.00,2013-04-17 10:36:00,
2013-04-17 05:41:00,40.2,36.1,29.99,NE,46,6.0,11.0,85,0.23,,,0.18,VWS V14.00,2013-04-17 10:41:00,
2013-04-17 05:46:00,39.7,35.9,29.94,ENE,71,11.0,21.0,86,0.19,,,0.20,VWS V14.00,2013-04-17 10:46:00,
2013-04-17 05:51:00,39.5,35.7,29.94,ENE,72,12.0,21.0,86,0.19,,,0.21,VWS V14.00,2013-04-17 10:51:00,
2013-04-17 05:56:00,39.5,36.0,29.96,SE,128,11.0,21.0,87,0.14,,,0.22,VWS V14.00,2013-04-17 10:56:00,
2013-04-17 06:01:00,39.5,36.0,29.98,NNE,26,7.0,21.0,87,0.09,,,0.23,VWS V14.00,2013-04-17 11:01:00,
2013-04-17 06:06:00,39.5,36.0,29.97,ENE,64,3.0,7.0,87,0.09,,,0.24,VWS V14.00,2013-04-17 11:06:00,
2013-04-17 06:11:00,39.5,36.0,29.93,ENE,63,11.0,15.0,87,0.19,,,0.25,VWS V14.00,2013-04-17 11:11:00,
2013-04-17 06:16:00,39.3,36.0,29.92,NNE,13,11.0,19.0,88,0.14,,,0.26,VWS V14.00,2013-04-17 11:16:00,
2013-04-17 06:21:00,39.3,36.0,29.96,WNW,287,4.0,19.0,88,0.10,,,0.27,VWS V14.00,2013-04-17 11:21:00,
2013-04-17 06:26:00,39.7,36.7,30.00,WNW,297,0.0,19.0,89,0.09,,,0.27,VWS V14.00,2013-04-17 11:26:00,
2013-04-17 06:31:00,39.5,36.2,29.98,NE,46,2.0,19.0,88,0.18,,,0.29,VWS V14.00,2013-04-17 11:31:00,
2013-04-17 06:36:00,39.3,36.0,30.04,NNW,328,0.0,1.0,88,0.18,,,0.30,VWS V14.00,2013-04-17 11:36:00,
2013-04-17 06:41:00,39.3,36.3,30.03,North,355,0.0,1.0,89,0.15,,,0.31,VWS V14.00,2013-04-17 11:41:00,
2013-04-17 06:46:00,39.2,36.2,30.01,NNW,344,7.0,7.0,89,0.07,,,0.31,VWS V14.00,2013-04-17 11:46:00,
2013-04-17 06:51:00,39.1,36.1,30.00,North,360,6.0,7.0,89,0.05,,,0.32,VWS V14.00,2013-04-17 11:51:00,
2013-04-17 06:56:00,39.0,36.0,30.02,NE,36,1.0,7.0,89,0.13,,,0.33,VWS V14.00,2013-04-17 11:56:00,
2013-04-17 07:01:00,38.9,35.9,29.99,NE,40,0.0,9.0,89,0.10,,,0.34,VWS V14.00,2013-04-17 12:01:00,
2013-04-17 07:06:00,38.9,35.9,29.99,NNE,28,1.0,9.0,89,0.15,,,0.35,VWS V14.00,2013-04-17 12:06:00,
2013-04-17 07:11:00,38.9,35.9,30.00,North,9,0.0,9.0,89,0.07,,,0.35,VWS V14.00,2013-04-17 12:11:00,
2013-04-17 07:16:00,38.9,36.2,30.01,North,10,0.0,9.0,90,0.04,,,0.35,VWS V14.00,2013-04-17 12:16:00,
2013-04-17 07:21:00,38.9,36.2,29.99,NNE,28,1.0,9.0,90,0.00,,,0.35,VWS V14.00,2013-04-17 12:21:00,
2013-04-17 07:26:00,38.9,36.2,29.98,NNE,24,2.0,9.0,90,0.00,,,0.36,VWS V14.00,2013-04-17 12:26:00,
2013-04-17 07:31:00,38.9,36.2,29.97,NNE,16,2.0,9.0,90,0.00,,,0.36,VWS V14.00,2013-04-17 12:31:00,
2013-04-17 07:36:00,38.8,36.1,29.97,NW,319,1.0,6.0,90,0.00,,,0.36,VWS V14.00,2013-04-17 12:36:00,
2013-04-17 07:41:00,39.0,36.3,29.98,NNE,15,4.0,9.0,90,0.00,,,0.36,VWS V14.00,2013-04-17 12:41:00,
2013-04-17 07:46:00,38.8,36.1,30.00,NNW,341,1.0,9.0,90,0.00,,,0.36,VWS V14.00,2013-04-17 12:46:00,
2013-04-17 07:51:00,38.5,35.8,30.01,NNE,24,0.0,10.0,90,0.00,,,0.36,VWS V14.00,2013-04-17 12:51:00,
2013-04-17 07:56:00,38.4,35.7,30.03,NNE,17,4.0,10.0,90,0.00,,,0.36,VWS V14.00,2013-04-17 12:56:00,
2013-04-17 08:01:00,38.2,35.5,30.02,NNE,14,4.0,11.0,90,0.00,,,0.36,VWS V14.00,2013-04-17 13:01:00,
2013-04-17 08:06:00,37.8,35.1,30.01,North,5,1.0,11.0,90,0.00,,,0.36,VWS V14.00,2013-04-17 13:06:00,
2013-04-17 08:11:00,37.6,34.9,30.01,North,355,7.0,11.0,90,0.00,,,0.36,VWS V14.00,2013-04-17 13:11:00,
2013-04-17 08:16:00,37.4,34.7,30.01,NNE,26,7.0,12.0,90,0.00,,,0.36,VWS V14.00,2013-04-17 13:16:00,
2013-04-17 08:21:00,37.2,34.5,30.00,NNW,335,3.0,12.0,90,0.00,,,0.36,VWS V14.00,2013-04-17 13:21:00,
2013-04-17 08:26:00,37.2,34.5,30.00,NNW,338,4.0,13.0,90,0.00,,,0.36,VWS V14.00,2013-04-17 13:26:00,
2013-04-17 08:31:00,37.2,34.5,30.00,North,355,4.0,13.0,90,0.00,,,0.36,VWS V14.00,2013-04-17 13:31:00,
2013-04-17 08:36:00,37.2,34.5,29.99,NNE,16,7.0,10.0,90,0.00,,,0.36,VWS V14.00,2013-04-17 13:36:00,
2013-04-17 08:41:00,37.2,34.5,30.00,NNE,28,4.0,14.0,90,0.00,,,0.36,VWS V14.00,2013-04-17 13:41:00,
2013-04-17 08:46:00,37.0,34.3,30.00,North,9,6.0,14.0,90,0.00,,,0.36,VWS V14.00,2013-04-17 13:46:00,
2013-04-17 08:51:00,37.0,34.3,29.99,NNE,26,1.0,14.0,90,0.00,,,0.36,VWS V14.00,2013-04-17 13:51:00,
2013-04-17 08:56:00,36.9,34.2,29.99,NNW,334,7.0,15.0,90,0.00,,,0.36,VWS V14.00,2013-04-17 13:56:00,
2013-04-17 09:01:00,36.8,34.2,29.99,North,355,2.0,15.0,90,0.00,,,0.36,VWS V14.00,2013-04-17 14:01:00,
2013-04-17 09:06:00,36.7,34.0,29.99,North,355,1.0,9.0,90,0.00,,,0.36,VWS V14.00,2013-04-17 14:06:00,
2013-04-17 09:11:00,36.6,34.0,29.98,North,360,4.0,12.0,90,0.00,,,0.36,VWS V14.00,2013-04-17 14:11:00,
2013-04-17 09:16:00,36.5,34.1,29.99,North,360,5.0,13.0,91,0.00,,,0.37,VWS V14.00,2013-04-17 14:16:00,
2013-04-17 09:21:00,36.4,34.0,29.98,NNE,22,3.0,13.0,91,0.00,,,0.37,VWS V14.00,2013-04-17 14:21:00,
2013-04-17 09:26:00,36.3,33.9,29.97,North,9,10.0,17.0,91,0.00,,,0.37,VWS V14.00,2013-04-17 14:26:00,
2013-04-17 09:31:00,36.3,33.9,29.98,NW,314,8.0,17.0,91,0.00,,,0.37,VWS V14.00,2013-04-17 14:31:00,
2013-04-17 09:36:00,36.4,34.0,29.97,NNW,334,5.0,12.0,91,0.00,,,0.37,VWS V14.00,2013-04-17 14:36:00,
2013-04-17 09:41:00,36.4,34.0,29.99,North,11,4.0,13.0,91,0.00,,,0.37,VWS V14.00,2013-04-17 14:41:00,
2013-04-17 09:46:00,36.4,34.0,29.99,North,9,2.0,14.0,91,0.00,,,0.37,VWS V14.00,2013-04-17 14:46:00,
2013-04-17 09:51:00,36.4,34.0,29.98,North,5,5.0,14.0,91,0.00,,,0.37,VWS V14.00,2013-04-17 14:51:00,
2013-04-17 09:56:00,36.4,34.0,29.98,North,360,2.0,17.0,91,0.00,,,0.37,VWS V14.00,2013-04-17 14:56:00,
2013-04-17 10:01:00,36.5,34.1,29.97,NNE,29,11.0,18.0,91,0.00,,,0.37,VWS V14.00,2013-04-17 15:01:00,
2013-04-17 10:06:00,36.5,34.1,29.96,ENE,58,2.0,13.0,91,0.00,,,0.37,VWS V14.00,2013-04-17 15:06:00,
2013-04-17 10:11:00,36.5,34.1,29.97,North,11,5.0,14.0,91,0.00,,,0.37,VWS V14.00,2013-04-17 15:11:00,
2013-04-17 10:16:00,36.5,34.1,29.97,North,5,4.0,14.0,91,0.00,,,0.37,VWS V14.00,2013-04-17 15:16:00,
2013-04-17 10:21:00,36.6,34.2,29.97,North,5,4.0,14.0,91,0.00,,,0.37,VWS V14.00,2013-04-17 15:21:00,
2013-04-17 10:26:00,36.6,34.2,29.97,NE,38,11.0,14.0,91,0.00,,,0.37,VWS V14.00,2013-04-17 15:26:00,
2013-04-17 10:31:00,36.6,34.2,29.97,NNW,340,5.0,14.0,91,0.00,,,0.37,VWS V14.00,2013-04-17 15:31:00,
2013-04-17 10:36:00,36.7,34.6,29.97,NE,49,9.0,14.0,92,0.00,,,0.37,VWS V14.00,2013-04-17 15:36:00,
2013-04-17 10:41:00,36.8,34.7,29.96,NE,55,4.0,14.0,92,0.00,,,0.37,VWS V14.00,2013-04-17 15:41:00,
2013-04-17 10:46:00,36.8,34.7,29.95,NNE,19,9.0,16.0,92,0.00,,,0.37,VWS V14.00,2013-04-17 15:46:00,
2013-04-17 10:51:00,36.8,34.7,29.95,NNE,30,5.0,16.0,92,0.00,,,0.37,VWS V14.00,2013-04-17 15:51:00,
2013-04-17 10:56:00,36.9,34.8,29.95,North,355,6.0,16.0,92,0.00,,,0.37,VWS V14.00,2013-04-17 15:56:00,
2013-04-17 11:01:00,37.0,34.9,29.96,NE,45,4.0,16.0,92,0.00,,,0.37,VWS V14.00,2013-04-17 16:01:00,
2013-04-17 11:06:00,37.1,35.0,29.96,NE,34,5.0,10.0,92,0.00,,,0.37,VWS V14.00,2013-04-17 16:06:00,
2013-04-17 11:11:00,37.2,35.1,29.95,North,11,13.0,13.0,92,0.00,,,0.37,VWS V14.00,2013-04-17 16:11:00,
2013-04-17 11:17:00,37.3,35.2,29.95,NE,35,4.0,13.0,92,0.00,,,0.37,VWS V14.00,2013-04-17 16:17:00,
2013-04-17 11:22:00,37.4,35.3,29.94,NNE,14,1.0,15.0,92,0.00,,,0.37,VWS V14.00,2013-04-17 16:22:00,
2013-04-17 11:27:00,37.6,35.5,29.94,NE,40,4.0,15.0,92,0.00,,,0.37,VWS V14.00,2013-04-17 16:27:00,
2013-04-17 11:32:00,37.6,35.5,29.94,North,5,5.0,15.0,92,0.00,,,0.37,VWS V14.00,2013-04-17 16:32:00,
2013-04-17 11:37:00,37.5,35.4,29.94,NNE,13,6.0,13.0,92,0.00,,,0.37,VWS V14.00,2013-04-17 16:37:00,
2013-04-17 11:42:00,37.6,35.5,29.94,NNE,13,2.0,13.0,92,0.00,,,0.37,VWS V14.00,2013-04-17 16:42:00,
2013-04-17 11:47:00,37.6,35.5,29.94,NNE,24,3.0,14.0,92,0.00,,,0.37,VWS V14.00,2013-04-17 16:47:00,
2013-04-17 11:52:00,37.6,35.5,29.93,NNW,346,3.0,14.0,92,0.00,,,0.37,VWS V14.00,2013-04-17 16:52:00,
2013-04-17 11:56:00,37.8,35.7,29.93,NNW,346,9.0,14.0,92,0.00,,,0.37,VWS V14.00,2013-04-17 16:56:00,
2013-04-17 12:01:00,37.9,35.8,29.94,NNW,346,4.0,14.0,92,0.00,,,0.37,VWS V14.00,2013-04-17 17:01:00,
2013-04-17 12:06:00,38.0,35.9,29.93,NNE,32,3.0,7.0,92,0.00,,,0.37,VWS V14.00,2013-04-17 17:06:00,
2013-04-17 12:11:00,38.0,35.9,29.93,NNE,18,5.0,14.0,92,0.00,,,0.37,VWS V14.00,2013-04-17 17:11:00,
2013-04-17 12:16:00,38.0,35.9,29.92,North,5,10.0,14.0,92,0.00,,,0.37,VWS V14.00,2013-04-17 17:16:00,
2013-04-17 12:21:00,38.0,35.9,29.92,North,9,2.0,14.0,92,0.00,,,0.37,VWS V14.00,2013-04-17 17:21:00,
2013-04-17 12:26:00,38.0,35.9,29.93,NNE,22,4.0,14.0,92,0.00,,,0.37,VWS V14.00,2013-04-17 17:26:00,
2013-04-17 12:31:00,38.0,35.9,29.93,NE,36,3.0,14.0,92,0.00,,,0.37,VWS V14.00,2013-04-17 17:31:00,
2013-04-17 12:36:00,38.0,35.9,29.93,North,5,5.0,12.0,92,0.00,,,0.37,VWS V14.00,2013-04-17 17:36:00,
2013-04-17 12:41:00,38.1,36.0,29.93,NNW,346,2.0,12.0,92,0.00,,,0.37,VWS V14.00,2013-04-17 17:41:00,
2013-04-17 12:46:00,38.0,35.9,29.92,North,5,6.0,14.0,92,0.00,,,0.37,VWS V14.00,2013-04-17 17:46:00,
2013-04-17 12:51:00,38.0,35.9,29.92,NNE,21,4.0,14.0,92,0.00,,,0.37,VWS V14.00,2013-04-17 17:51:00,
2013-04-17 12:56:00,38.0,35.9,29.92,NE,36,3.0,14.0,92,0.00,,,0.37,VWS V14.00,2013-04-17 17:56:00,
2013-04-17 13:01:00,38.0,35.9,29.91,North,355,11.0,14.0,92,0.00,,,0.37,VWS V14.00,2013-04-17 18:01:00,
2013-04-17 13:06:00,38.0,35.9,29.91,NNE,25,10.0,10.0,92,0.00,,,0.37,VWS V14.00,2013-04-17 18:06:00,
2013-04-17 13:11:00,38.2,36.1,29.91,NE,45,2.0,13.0,92,0.00,,,0.37,VWS V14.00,2013-04-17 18:11:00,
2013-04-17 13:16:00,38.3,36.2,29.91,North,355,9.0,13.0,92,0.00,,,0.37,VWS V14.00,2013-04-17 18:16:00,
2013-04-17 13:21:00,38.2,36.1,29.91,North,360,3.0,15.0,92,0.00,,,0.37,VWS V14.00,2013-04-17 18:21:00,
2013-04-17 13:26:00,38.3,36.2,29.90,North,9,3.0,15.0,92,0.00,,,0.37,VWS V14.00,2013-04-17 18:26:00,
2013-04-17 13:31:00,38.4,36.6,29.90,North,11,3.0,15.0,93,0.00,,,0.37,VWS V14.00,2013-04-17 18:31:00,
2013-04-17 13:36:00,38.4,36.3,29.90,North,360,2.0,10.0,92,0.00,,,0.37,VWS V14.00,2013-04-17 18:36:00,
2013-04-17 13:41:00,38.6,36.8,29.90,NNE,14,9.0,10.0,93,0.00,,,0.37,VWS V14.00,2013-04-17 18:41:00,
2013-04-17 13:46:00,38.6,36.5,29.89,NNE,17,2.0,13.0,92,0.00,,,0.37,VWS V14.00,2013-04-17 18:46:00,
2013-04-17 13:51:00,38.8,36.7,29.89,NNE,32,3.0,13.0,92,0.00,,,0.37,VWS V14.00,2013-04-17 18:51:00,
2013-04-17 13:56:00,38.8,36.7,29.90,NNE,29,6.0,13.0,92,0.00,,,0.37,VWS V14.00,2013-04-17 18:56:00,
2013-04-17 14:01:00,38.8,36.7,29.90,NNE,30,10.0,13.0,92,0.00,,,0.37,VWS V14.00,2013-04-17 19:01:00,
2013-04-17 14:06:00,38.8,36.7,29.89,North,11,6.0,10.0,92,0.00,,,0.37,VWS V14.00,2013-04-17 19:06:00,
2013-04-17 14:11:00,38.9,36.8,29.90,North,11,2.0,10.0,92,0.00,,,0.37,VWS V14.00,2013-04-17 19:11:00,
2013-04-17 14:16:00,38.9,36.8,29.90,North,355,0.0,18.0,92,0.00,,,0.37,VWS V14.00,2013-04-17 19:16:00,
2013-04-17 14:21:00,38.9,36.8,29.88,North,355,9.0,18.0,92,0.00,,,0.37,VWS V14.00,2013-04-17 19:21:00,
2013-04-17 14:26:00,39.1,37.0,29.88,NNE,13,4.0,18.0,92,0.00,,,0.37,VWS V14.00,2013-04-17 19:26:00,
2013-04-17 14:31:00,39.1,37.2,29.89,NNE,18,4.0,18.0,93,0.00,,,0.37,VWS V14.00,2013-04-17 19:31:00,
2013-04-17 14:36:00,39.1,37.2,29.89,North,5,6.0,10.0,93,0.00,,,0.37,VWS V14.00,2013-04-17 19:36:00,
2013-04-17 14:41:00,39.1,37.2,29.87,NNE,19,5.0,13.0,93,0.00,,,0.37,VWS V14.00,2013-04-17 19:41:00,
2013-04-17 14:46:00,39.2,37.3,29.86,NNE,19,5.0,13.0,93,0.00,,,0.37,VWS V14.00,2013-04-17 19:46:00,
2013-04-17 14:51:00,39.2,37.3,29.86,ENE,59,6.0,13.0,93,0.00,,,0.37,VWS V14.00,2013-04-17 19:51:00,
2013-04-17 14:56:00,39.2,37.3,29.86,NE,37,5.0,13.0,93,0.00,,,0.37,VWS V14.00,2013-04-17 19:56:00,
2013-04-17 15:01:00,39.3,37.5,29.86,NE,51,2.0,13.0,93,0.00,,,0.37,VWS V14.00,2013-04-17 20:01:00,
2013-04-17 15:06:00,39.3,37.5,29.86,North,10,4.0,11.0,93,0.00,,,0.37,VWS V14.00,2013-04-17 20:06:00,
2013-04-17 15:11:00,39.4,37.5,29.86,North,5,9.0,12.0,93,0.00,,,0.37,VWS V14.00,2013-04-17 20:11:00,
2013-04-17 15:16:00,39.4,37.3,29.85,NNE,17,6.0,13.0,92,0.00,,,0.37,VWS V14.00,2013-04-17 20:16:00,
2013-04-17 15:21:00,39.4,37.3,29.84,NNE,26,4.0,14.0,92,0.00,,,0.37,VWS V14.00,2013-04-17 20:21:00,
2013-04-17 15:26:00,39.5,37.4,29.82,North,351,2.0,14.0,92,0.00,,,0.37,VWS V14.00,2013-04-17 20:26:00,
2013-04-17 15:31:00,39.8,38.0,29.83,NNE,14,5.0,14.0,93,0.00,,,0.37,VWS V14.00,2013-04-17 20:31:00,
2013-04-17 15:36:00,39.8,38.0,29.83,NNW,346,9.0,12.0,93,0.00,,,0.37,VWS V14.00,2013-04-17 20:36:00,
2013-04-17 15:41:00,39.8,38.0,29.84,North,9,3.0,13.0,93,0.00,,,0.37,VWS V14.00,2013-04-17 20:41:00,
2013-04-17 15:47:00,39.8,38.0,29.84,NNE,28,11.0,13.0,93,0.00,,,0.37,VWS V14.00,2013-04-17 20:47:00,
2013-04-17 15:52:00,39.8,38.0,29.83,NNE,32,4.0,13.0,93,0.00,,,0.37,VWS V14.00,2013-04-17 20:52:00,
2013-04-17 15:57:00,39.8,38.0,29.83,North,360,3.0,15.0,93,0.00,,,0.37,VWS V14.00,2013-04-17 20:57:00,
2013-04-17 16:02:00,39.9,38.0,29.83,NNE,19,2.0,15.0,93,0.00,,,0.37,VWS V14.00,2013-04-17 21:02:00,
2013-04-17 16:07:00,39.9,38.0,29.83,NNE,33,2.0,6.0,93,0.00,,,0.37,VWS V14.00,2013-04-17 21:07:00,
2013-04-17 16:12:00,39.9,38.0,29.84,NNW,344,0.0,7.0,93,0.00,,,0.37,VWS V14.00,2013-04-17 21:12:00,
2013-04-17 16:16:00,40.0,38.1,29.85,North,355,5.0,8.0,93,0.00,,,0.37,VWS V14.00,2013-04-17 21:16:00,
2013-04-17 16:21:00,40.0,38.1,29.83,NNW,346,0.0,11.0,93,0.00,,,0.37,VWS V14.00,2013-04-17 21:21:00,
2013-04-17 16:27:00,40.0,37.9,29.87,ENE,78,1.0,11.0,92,0.00,,,0.37,VWS V14.00,2013-04-17 21:27:00,
2013-04-17 16:32:00,40.0,37.9,29.89,ENE,57,0.0,11.0,92,0.00,,,0.37,VWS V14.00,2013-04-17 21:32:00,
2013-04-17 16:37:00,40.0,38.1,29.90,WNW,295,0.0,4.0,93,0.00,,,0.38,VWS V14.00,2013-04-17 21:37:00,
2013-04-17 16:42:00,40.1,38.0,29.90,NW,322,0.0,4.0,92,0.00,,,0.38,VWS V14.00,2013-04-17 21:42:00,
2013-04-17 16:46:00,40.0,37.9,29.87,North,355,3.0,9.0,92,0.09,,,0.39,VWS V14.00,2013-04-17 21:46:00,
2013-04-17 16:51:00,40.0,37.9,29.88,NW,314,0.0,9.0,92,0.12,,,0.40,VWS V14.00,2013-04-17 21:51:00,
2013-04-17 16:56:00,39.9,37.8,29.85,ENE,64,3.0,13.0,92,0.07,,,0.40,VWS V14.00,2013-04-17 21:56:00,
2013-04-17 17:01:00,39.9,37.8,29.88,North,360,0.0,13.0,92,0.04,,,0.40,VWS V14.00,2013-04-17 22:01:00,
2013-04-17 17:06:00,40.1,38.2,29.89,NNE,29,4.0,4.0,93,0.00,,,0.41,VWS V14.00,2013-04-17 22:06:00,
2013-04-17 19:00:00,37.9,35.8,29.85,NNW,331,1.0,20.0,92,0.00,,,0.43,VWS V14.00,2013-04-18 00:00:00,
2013-04-17 19:24:00,37.9,35.5,29.88,NNW,328,0.0,16.0,91,0.00,,,0.43,VWS V14.00,2013-04-18 00:24:00,
2013-04-17 19:29:00,37.9,35.5,29.88,NNE,18,1.0,16.0,91,0.00,,,0.43,VWS V14.00,2013-04-18 00:29:00,
2013-04-17 19:34:00,37.9,35.5,29.88,NNW,340,8.0,16.0,91,0.00,,,0.43,VWS V14.00,2013-04-18 00:34:00,
2013-04-17 19:39:00,37.8,35.4,29.88,NNW,329,3.0,14.0,91,0.00,,,0.43,VWS V14.00,2013-04-18 00:39:00,
2013-04-17 19:44:00,37.9,35.5,29.87,NW,314,9.0,14.0,91,0.00,,,0.43,VWS V14.00,2013-04-18 00:44:00,
2013-04-17 19:49:00,37.8,35.4,29.88,NNW,345,7.0,14.0,91,0.00,,,0.43,VWS V14.00,2013-04-18 00:49:00,
2013-04-17 19:54:00,37.7,35.3,29.88,North,350,3.0,14.0,91,0.00,,,0.43,VWS V14.00,2013-04-18 00:54:00,
2013-04-17 19:59:00,37.7,35.3,29.88,North,10,5.0,15.0,91,0.00,,,0.43,VWS V14.00,2013-04-18 00:59:00,
2013-04-17 20:04:00,37.7,35.3,29.88,WNW,290,10.0,15.0,91,0.00,,,0.43,VWS V14.00,2013-04-18 01:04:00,
2013-04-17 20:09:00,37.7,35.3,29.88,NNE,24,6.0,16.0,91,0.00,,,0.43,VWS V14.00,2013-04-18 01:09:00,
2013-04-17 20:14:00,37.6,34.9,29.89,NW,315,6.0,16.0,90,0.00,,,0.43,VWS V14.00,2013-04-18 01:14:00,
2013-04-17 20:19:00,37.6,34.9,29.89,NNE,15,10.0,17.0,90,0.00,,,0.43,VWS V14.00,2013-04-18 01:19:00,
2013-04-17 20:24:00,37.6,34.9,29.88,NW,313,4.0,17.0,90,0.00,,,0.43,VWS V14.00,2013-04-18 01:24:00,
2013-04-17 20:29:00,37.5,34.8,29.88,NNW,341,7.0,20.0,90,0.00,,,0.43,VWS V14.00,2013-04-18 01:29:00,
2013-04-17 20:34:00,37.5,34.8,29.87,NNW,327,2.0,20.0,90,0.00,,,0.43,VWS V14.00,2013-04-18 01:34:00,
2013-04-17 20:39:00,37.5,34.8,29.87,NNW,336,6.0,9.0,90,0.00,,,0.43,VWS V14.00,2013-04-18 01:39:00,
2013-04-17 20:44:00,37.4,34.5,29.86,NNW,332,2.0,15.0,89,0.00,,,0.43,VWS V14.00,2013-04-18 01:44:00,
2013-04-17 20:49:00,37.4,34.5,29.86,North,9,5.0,17.0,89,0.00,,,0.43,VWS V14.00,2013-04-18 01:49:00,
2013-04-17 20:54:00,37.3,34.4,29.87,NNW,347,2.0,17.0,89,0.00,,,0.43,VWS V14.00,2013-04-18 01:54:00,
2013-04-17 20:59:00,37.3,34.4,29.87,WNW,302,5.0,17.0,89,0.00,,,0.43,VWS V14.00,2013-04-18 01:59:00,
2013-04-17 21:04:00,37.3,34.4,29.87,NNW,345,10.0,17.0,89,0.00,,,0.43,VWS V14.00,2013-04-18 02:04:00,
2013-04-17 21:09:00,37.3,34.4,29.87,North,355,7.0,18.0,89,0.00,,,0.43,VWS V14.00,2013-04-18 02:09:00,
2013-04-17 21:14:00,37.3,34.4,29.88,NE,40,0.0,18.0,89,0.00,,,0.43,VWS V14.00,2013-04-18 02:14:00,
2013-04-17 21:19:00,37.4,34.5,29.89,NW,321,3.0,18.0,89,0.00,,,0.43,VWS V14.00,2013-04-18 02:19:00,
2013-04-17 21:23:00,37.4,34.5,29.89,NNW,346,5.0,19.0,89,0.00,,,0.43,VWS V14.00,2013-04-18 02:23:00,
2013-04-17 21:28:00,37.3,34.4,29.89,North,360,10.0,19.0,89,0.00,,,0.43,VWS V14.00,2013-04-18 02:28:00,
2013-04-17 21:33:00,37.3,34.4,29.89,North,355,0.0,19.0,89,0.00,,,0.43,VWS V14.00,2013-04-18 02:33:00,
2013-04-17 21:38:00,37.3,34.1,29.89,North,5,14.0,17.0,88,0.00,,,0.43,VWS V14.00,2013-04-18 02:38:00,
2013-04-17 21:43:00,37.3,34.1,29.87,NNW,347,0.0,17.0,88,0.00,,,0.43,VWS V14.00,2013-04-18 02:43:00,
2013-04-17 21:48:00,37.2,34.0,29.86,NE,43,0.0,17.0,88,0.00,,,0.43,VWS V14.00,2013-04-18 02:48:00,
2013-04-17 21:53:00,37.1,33.9,29.86,NNE,22,0.0,24.0,88,0.00,,,0.43,VWS V14.00,2013-04-18 02:53:00,
2013-04-17 21:58:00,37.0,33.8,29.86,NE,37,3.0,24.0,88,0.00,,,0.43,VWS V14.00,2013-04-18 02:58:00,
2013-04-17 22:03:00,37.0,33.8,29.86,North,9,6.0,24.0,88,0.00,,,0.43,VWS V14.00,2013-04-18 03:03:00,
2013-04-17 22:08:00,36.9,33.7,29.87,North,355,11.0,16.0,88,0.00,,,0.43,VWS V14.00,2013-04-18 03:08:00,
2013-04-17 22:13:00,36.8,33.6,29.88,NNE,19,12.0,17.0,88,0.00,,,0.43,VWS V14.00,2013-04-18 03:13:00,
2013-04-17 22:18:00,36.8,33.6,29.87,NNE,22,5.0,17.0,88,0.00,,,0.43,VWS V14.00,2013-04-18 03:18:00,
2013-04-17 22:23:00,36.7,33.5,29.86,NNW,344,5.0,19.0,88,0.00,,,0.43,VWS V14.00,2013-04-18 03:23:00,
2013-04-17 22:28:00,36.6,33.4,29.87,North,9,9.0,19.0,88,0.00,,,0.43,VWS V14.00,2013-04-18 03:28:00,
2013-04-17 22:33:00,36.5,33.3,29.87,North,360,1.0,21.0,88,0.00,,,0.43,VWS V14.00,2013-04-18 03:33:00,
2013-04-17 22:38:00,36.4,33.2,29.86,NNE,25,3.0,19.0,88,0.00,,,0.43,VWS V14.00,2013-04-18 03:38:00,
2013-04-17 22:43:00,36.4,33.2,29.86,North,9,5.0,27.0,88,0.00,,,0.43,VWS V14.00,2013-04-18 03:43:00,
2013-04-17 22:48:00,36.3,33.1,29.87,North,9,0.0,27.0,88,0.00,,,0.43,VWS V14.00,2013-04-18 03:48:00,
2013-04-17 22:53:00,36.2,33.0,29.88,NNE,17,2.0,27.0,88,0.00,,,0.43,VWS V14.00,2013-04-18 03:53:00,
2013-04-17 22:58:00,36.2,33.0,29.89,North,351,9.0,27.0,88,0.00,,,0.43,VWS V14.00,2013-04-18 03:58:00,
2013-04-17 23:01:00,36.1,32.9,29.88,North,349,5.0,27.0,88,0.00,,,0.43,VWS V14.00,2013-04-18 04:01:00,
2013-04-17 23:06:00,35.9,32.7,29.86,North,355,12.0,15.0,88,0.00,,,0.43,VWS V14.00,2013-04-18 04:06:00,
2013-04-17 23:11:00,35.8,32.6,29.85,North,349,13.0,22.0,88,0.00,,,0.43,VWS V14.00,2013-04-18 04:11:00,
2013-04-17 23:16:00,35.7,32.5,29.86,NNW,347,0.0,22.0,88,0.00,,,0.43,VWS V14.00,2013-04-18 04:16:00,
2013-04-17 23:21:00,35.7,32.5,29.86,North,355,0.0,22.0,88,0.00,,,0.43,VWS V14.00,2013-04-18 04:21:00,
2013-04-17 23:26:00,35.7,32.5,29.87,North,5,6.0,25.0,88,0.00,,,0.43,VWS V14.00,2013-04-18 04:26:00,
2013-04-17 23:31:00,35.7,32.5,29.88,North,355,0.0,25.0,88,0.00,,,0.43,VWS V14.00,2013-04-18 04:31:00,
2013-04-17 23:36:00,35.6,32.4,29.88,NNW,344,0.0,13.0,88,0.00,,,0.43,VWS V14.00,2013-04-18 04:36:00,
2013-04-17 23:41:00,35.4,32.2,29.86,NNW,348,9.0,17.0,88,0.00,,,0.43,VWS V14.00,2013-04-18 04:41:00,
2013-04-17 23:46:00,35.3,32.1,29.84,NNE,14,6.0,17.0,88,0.00,,,0.43,VWS V14.00,2013-04-18 04:46:00,
2013-04-17 23:51:00,35.1,31.9,29.84,NNW,344,14.0,25.0,88,0.00,,,0.43,VWS V14.00,2013-04-18 04:51:00,
2013-04-17 23:56:00,34.9,31.7,29.84,NW,317,0.0,28.0,88,0.00,,,0.43,VWS V14.00,2013-04-18 04:56:00,